• In Hungary
  • List of Countries
  • For 7 days
  • Water Temperature
  • Satellite Maps
  • Weather Map
  • News
  • Weather Widgets
  • user-avatar
    Login

    Hourly Weather Nymburk

    Today, 17 December, Sunday

    Time Temperature Precipitation Wind Pressure Humidity
    00:00 0°C° 0 mm 3 mps 743 mmHg 87%
    01:00 0°C° 0 mm 3 mps 743 mmHg 89%
    02:00 0°C° 0.1 mm 3 mps 743 mmHg 89%
    03:00 0°C° 0.1 mm 3 mps 743 mmHg 90%
    04:00 -1°C° 0.1 mm 3 mps 744 mmHg 90%
    05:00 -1°C° 0.1 mm 3 mps 744 mmHg 90%
    06:00 -1°C° 0.1 mm 2 mps 744 mmHg 90%
    07:00 -1°C° 0 mm 2 mps 745 mmHg 90%
    08:00 0°C° 0.1 mm 3 mps 745 mmHg 88%
    09:00 +1°C° 0.1 mm 3 mps 745 mmHg 85%
    10:00 0°C° 0.1 mm 4 mps 746 mmHg 83%
    11:00 0°C° 0.2 mm 4 mps 746 mmHg 81%
    12:00 +1°C° 0.2 mm 4 mps 746 mmHg 79%
    13:00 +1°C° 0.2 mm 4 mps 747 mmHg 77%
    14:00 +1°C° 0.3 mm 3 mps 747 mmHg 80%
    15:00 +1°C° 0.3 mm 3 mps 747 mmHg 83%
    16:00 0°C° 0.3 mm 3 mps 748 mmHg 85%
    17:00 0°C° 0.2 mm 3 mps 748 mmHg 87%
    18:00 -1°C° 0.2 mm 2 mps 748 mmHg 89%
    19:00 -2°C° 0.2 mm 2 mps 749 mmHg 90%
    20:00 -2°C° 0 mm 2 mps 749 mmHg 91%
    21:00 -2°C° 0 mm 2 mps 750 mmHg 91%
    22:00 -3°C° 0 mm 2 mps 750 mmHg 92%
    23:00 -3°C° 0 mm 2 mps 750 mmHg 92%

    Tomorrow, 18 December, Monday

    Time Temperature Precipitation Wind Pressure Humidity
    00:00 -3°C° 0 mm 2 mps 750 mmHg 92%
    01:00 -1°C° 0 mm 1 mps 751 mmHg 92%
    02:00 -1°C° 0 mm 1 mps 751 mmHg 92%
    03:00 -1°C° 0 mm 1 mps 751 mmHg 91%
    04:00 -1°C° 0 mm 1 mps 751 mmHg 91%
    05:00 -1°C° 0 mm 1 mps 751 mmHg 90%
    06:00 -1°C° 0 mm 1 mps 751 mmHg 90%
    07:00 -1°C° 0 mm 1 mps 751 mmHg 90%
    08:00 -1°C° 0 mm 1 mps 751 mmHg 88%
    09:00 0°C° 0 mm 1 mps 751 mmHg 85%
    10:00 0°C° 0 mm 1 mps 752 mmHg 83%
    11:00 +1°C° 0 mm 1 mps 752 mmHg 81%
    12:00 +1°C° 0 mm 1 mps 751 mmHg 78%
    13:00 +2°C° 0 mm 1 mps 751 mmHg 75%
    14:00 +1°C° 0 mm 1 mps 751 mmHg 78%
    15:00 0°C° 0 mm 1 mps 751 mmHg 81%
    16:00 0°C° 0 mm 1 mps 752 mmHg 84%
    17:00 -1°C° 0 mm 1 mps 752 mmHg 85%
    18:00 -1°C° 0 mm 1 mps 752 mmHg 85%
    19:00 -2°C° 0 mm 0 mps 753 mmHg 86%
    20:00 -2°C° 0 mm 0 mps 753 mmHg 86%
    21:00 -2°C° 0 mm 0 mps 753 mmHg 86%
    22:00 -2°C° 0 mm 0 mps 753 mmHg 87%
    23:00 -3°C° 0 mm 0 mps 754 mmHg 87%

    Day after tomorrow, 19 December, Tuesday

    Time Temperature Precipitation Wind Pressure Humidity
    00:00 -2°C° 0 mm 1 mps 754 mmHg 87%
    01:00 -2°C° 0 mm 1 mps 754 mmHg 87%
    02:00 -2°C° 0 mm 1 mps 754 mmHg 88%
    03:00 -2°C° 0 mm 1 mps 754 mmHg 88%
    04:00 -2°C° 0 mm 1 mps 754 mmHg 88%
    05:00 -2°C° 0 mm 1 mps 754 mmHg 89%
    06:00 -2°C° 0 mm 1 mps 754 mmHg 89%
    07:00 -2°C° 0 mm 1 mps 754 mmHg 89%
    08:00 -1°C° 0 mm 1 mps 755 mmHg 87%
    09:00 -1°C° 0 mm 1 mps 755 mmHg 84%
    10:00 0°C° 0 mm 1 mps 755 mmHg 82%
    11:00 0°C° 0 mm 1 mps 755 mmHg 81%
    12:00 +1°C° 0 mm 1 mps 755 mmHg 80%
    13:00 +1°C° 0 mm 1 mps 755 mmHg 79%
    14:00 +1°C° 0.1 mm 1 mps 755 mmHg 83%
    15:00 +1°C° 0.1 mm 1 mps 755 mmHg 87%
    16:00 -1°C° 0.1 mm 0 mps 755 mmHg 90%
    17:00 -1°C° 0 mm 0 mps 755 mmHg 91%
    18:00 -1°C° 0 mm 0 mps 755 mmHg 91%
    19:00 -1°C° 0 mm 0 mps 756 mmHg 92%
    20:00 -1°C° 0 mm 0 mps 756 mmHg 92%
    21:00 -1°C° 0 mm 0 mps 756 mmHg 92%
    22:00 -2°C° 0 mm 0 mps 756 mmHg 93%
    23:00 -2°C° 0 mm 0 mps 756 mmHg 93%

    20 December, Wednesday

    Time Temperature Precipitation Wind Pressure Humidity
    00:00 -2°C° 0 mm 0 mps 756 mmHg 93%
    01:00 -2°C° 0 mm 0 mps 756 mmHg 93%
    02:00 -2°C° 0 mm 0 mps 756 mmHg 93%
    03:00 -2°C° 0 mm 0 mps 756 mmHg 93%
    04:00 -1°C° 0 mm 1 mps 756 mmHg 93%
    05:00 -1°C° 0 mm 1 mps 756 mmHg 93%
    06:00 -1°C° 0 mm 1 mps 756 mmHg 93%
    07:00 -2°C° 0 mm 1 mps 757 mmHg 92%
    08:00 -1°C° 0 mm 1 mps 757 mmHg 90%
    09:00 0°C° 0 mm 1 mps 757 mmHg 89%
    10:00 0°C° 0 mm 1 mps 757 mmHg 87%
    11:00 +1°C° 0 mm 1 mps 757 mmHg 85%
    12:00 +2°C° 0 mm 1 mps 757 mmHg 83%
    13:00 +2°C° 0 mm 1 mps 756 mmHg 81%
    14:00 +1°C° 0 mm 1 mps 756 mmHg 83%
    15:00 +1°C° 0 mm 1 mps 756 mmHg 86%
    16:00 0°C° 0 mm 1 mps 756 mmHg 89%
    17:00 0°C° 0 mm 1 mps 756 mmHg 90%
    18:00 0°C° 0 mm 1 mps 756 mmHg 90%
    19:00 0°C° 0 mm 1 mps 756 mmHg 91%
    20:00 0°C° 0 mm 1 mps 756 mmHg 91%
    21:00 0°C° 0 mm 1 mps 756 mmHg 91%
    22:00 +1°C° 0 mm 1 mps 756 mmHg 92%
    23:00 +1°C° 0.1 mm 1 mps 755 mmHg 92%

    21 December, Thursday

    Time Temperature Precipitation Wind Pressure Humidity
    00:00 +1°C° 0.1 mm 1 mps 755 mmHg 92%
    01:00 -1°C° 0.1 mm 2 mps 755 mmHg 93%
    02:00 +1°C° 0.5 mm 2 mps 754 mmHg 93%
    03:00 +1°C° 0.5 mm 2 mps 753 mmHg 94%
    04:00 +1°C° 0.5 mm 2 mps 753 mmHg 95%
    05:00 +2°C° 0.6 mm 2 mps 752 mmHg 95%
    06:00 +2°C° 0.6 mm 2 mps 752 mmHg 95%
    07:00 +3°C° 0.6 mm 2 mps 751 mmHg 96%
    08:00 +2°C° 0.9 mm 3 mps 751 mmHg 96%
    09:00 +3°C° 0.9 mm 3 mps 751 mmHg 96%
    10:00 +4°C° 0.9 mm 4 mps 751 mmHg 96%
    11:00 +4°C° 0.5 mm 4 mps 751 mmHg 95%
    12:00 +3°C° 0.5 mm 5 mps 750 mmHg 95%
    13:00 +5°C° 0.5 mm 5 mps 750 mmHg 94%
    14:00 +3°C° 0 mm 5 mps 750 mmHg 93%
    15:00 +4°C° 0 mm 4 mps 751 mmHg 92%
    16:00 +3°C° 0 mm 4 mps 751 mmHg 91%
    17:00 +3°C° 0 mm 4 mps 751 mmHg 91%
    18:00 +2°C° 0 mm 3 mps 751 mmHg 92%
    19:00 +2°C° 0 mm 3 mps 752 mmHg 92%
    20:00 +2°C° 0 mm 3 mps 751 mmHg 92%
    21:00 +2°C° 0 mm 2 mps 751 mmHg 93%
    22:00 +2°C° 0 mm 2 mps 751 mmHg 93%
    23:00 +2°C° 0.1 mm 2 mps 751 mmHg 94%

    22 December, Friday

    Time Temperature Precipitation Wind Pressure Humidity
    00:00 +3°C° 0.1 mm 1 mps 750 mmHg 94%
    01:00 +3°C° 0.1 mm 1 mps 750 mmHg 94%
    02:00 +3°C° 0.3 mm 1 mps 750 mmHg 94%
    03:00 +3°C° 0.3 mm 1 mps 749 mmHg 94%
    04:00 +2°C° 0.3 mm 2 mps 749 mmHg 93%
    05:00 +2°C° 0.2 mm 2 mps 749 mmHg 93%
    06:00 +1°C° 0.2 mm 3 mps 750 mmHg 92%
    07:00 +1°C° 0.2 mm 3 mps 750 mmHg 91%
    08:00 +1°C° 0.2 mm 4 mps 751 mmHg 90%
    09:00 +1°C° 0.2 mm 5 mps 751 mmHg 89%
    10:00 +1°C° 0.2 mm 6 mps 752 mmHg 88%
    11:00 +1°C° 0 mm 6 mps 752 mmHg 86%
    12:00 +1°C° 0 mm 6 mps 752 mmHg 84%
    13:00 +1°C° 0 mm 6 mps 752 mmHg 82%
    14:00 +1°C° 0.1 mm 6 mps 752 mmHg 83%
    15:00 +1°C° 0.1 mm 5 mps 752 mmHg 84%
    16:00 +1°C° 0.1 mm 5 mps 752 mmHg 85%
    17:00 +1°C° 0.3 mm 5 mps 752 mmHg 85%
    18:00 +1°C° 0.3 mm 5 mps 752 mmHg 86%
    19:00 0°C° 0.3 mm 5 mps 752 mmHg 86%
    20:00 -1°C° 0.2 mm 6 mps 752 mmHg 85%
    21:00 -2°C° 0.2 mm 6 mps 752 mmHg 83%
    22:00 -2°C° 0.2 mm 6 mps 752 mmHg 81%
    23:00 -3°C° 0 mm 6 mps 752 mmHg 82%
    Show more